| time (UTC) | temp F | wind direction | speed MPH | gust MPH | rain 1hr in | rain 24hr in | rain mn in | humidity % | barometer mb |
| 20260903014534 | 66 | 131 | 0.0 | 11.0 | 0.00 | 0.00 | 0.00 | 100 | 1017.9 |
| 20260903013027 | 66 | 114 | 0.0 | 4.0 | 0.00 | 0.00 | 0.00 | 100 | 1017.8 |
| 20260903011523 | 66 | 106 | 1.0 | 7.0 | 0.00 | 0.00 | 0.00 | 100 | 1018.0 |
| 20260903010018 | 66 | 154 | 0.0 | 4.0 | 0.00 | 0.00 | 0.00 | 100 | 1018.3 |
| 20260903004513 | 66 | 156 | 2.0 | 9.0 | 0.00 | 0.00 | 0.00 | 100 | 1018.4 |
| 20260903003009 | 66 | 150 | 1.0 | 9.0 | 0.00 | 0.00 | 0.00 | 100 | 1018.1 |
| 20260903001505 | 66 | 97 | 2.0 | 10.0 | 0.00 | 0.00 | 0.00 | 100 | 1017.6 |
| 20260902234606 | 66 | 188 | 2.0 | 9.0 | 0.00 | 0.00 | 0.00 | 100 | 1017.2 |
| 20260902233052 | 66 | 115 | 0.0 | 10.0 | 0.00 | 0.00 | 0.00 | 100 | 1017.7 |
| 20260902231548 | 66 | 150 | 1.0 | 11.0 | 0.00 | 0.00 | 0.00 | 100 | 1018.1 |
| 20260902230047 | 67 | 167 | 1.0 | 7.0 | 0.00 | 0.00 | 0.00 | 100 | 1018.3 |
| 20260902224538 | 67 | 238 | 2.0 | 15.0 | 0.00 | 0.00 | 0.00 | 100 | 1018.3 |
| 20260902223035 | 67 | 206 | 0.0 | 6.0 | 0.00 | 0.00 | 0.00 | 100 | 1018.7 |
| 20260902221534 | 67 | 142 | 1.0 | 12.0 | 0.00 | 0.00 | 0.00 | 100 | 1018.8 |
| 20260902220030 | 67 | 145 | 2.0 | 7.0 | 0.00 | 0.00 | 0.00 | 100 | 1018.9 |
| 20260902214521 | 67 | 115 | 2.0 | 11.0 | 0.00 | 0.00 | 0.00 | 100 | 1018.7 |
| 20260902213017 | 67 | 171 | 1.0 | 10.0 | 0.00 | 0.00 | 0.00 | 100 | 1019.0 |
| 20260902211513 | 67 | 192 | 1.0 | 14.0 | 0.00 | 0.00 | 0.00 | 100 | 1019.1 |
| 20260902210010 | 67 | 184 | 4.0 | 14.0 | 0.00 | 0.00 | 0.00 | 100 | 1019.2 |
| 20260902204507 | 67 | 192 | 4.0 | 12.0 | 0.00 | 0.00 | 0.00 | 100 | 1019.0 |
| 20260902203101 | 66 | 132 | 1.0 | 11.0 | 0.00 | 0.00 | 0.00 | 100 | 1019.1 |
| 20260902201604 | 66 | 157 | 2.0 | 7.0 | 0.00 | 0.00 | 0.00 | 100 | 1019.2 |
| 20260902200051 | 66 | 169 | 1.0 | 12.0 | 0.00 | 0.00 | 0.00 | 100 | 1019.1 |
| 20260902194549 | 66 | 165 | 2.0 | 11.0 | 0.00 | 0.00 | 0.00 | 100 | 1019.1 |
| 20260902193042 | 65 | 213 | 0.0 | 7.0 | 0.00 | 0.00 | 0.00 | 100 | 1019.0 |
| 20260902191539 | 65 | 171 | 1.0 | 9.0 | 0.00 | 0.00 | 0.00 | 100 | 1019.3 |
| 20260902190033 | 64 | 144 | 0.0 | 10.0 | 0.00 | 0.00 | 0.00 | 100 | 1019.6 |
| 20260902184529 | 64 | 174 | 1.0 | 7.0 | 0.00 | 0.00 | 0.00 | 100 | 1019.6 |
| 20260902183025 | 64 | 235 | 0.0 | 7.0 | 0.00 | 0.00 | 0.00 | 100 | 1019.2 |
| 20260902181520 | 64 | 129 | 0.0 | 4.0 | 0.00 | 0.00 | 0.00 | 100 | 1019.2 |
| 20260902180015 | 64 | 230 | 0.0 | 9.0 | 0.00 | 0.00 | 0.00 | 100 | 1019.1 |
| 20260902174511 | 65 | 160 | 0.0 | 5.0 | 0.00 | 0.00 | 0.00 | 100 | 1019.5 |
| 20260902173007 | 65 | 244 | 0.0 | 5.0 | 0.00 | 0.00 | 0.00 | 100 | 1019.4 |
| 20260902171503 | 65 | 163 | 0.0 | 7.0 | 0.00 | 0.00 | 0.00 | 100 | 1020.6 |
| 20260902170059 | 66 | 178 | 1.0 | 8.0 | 0.00 | 0.00 | 0.00 | 100 | 1020.8 |
| 20260902164555 | 66 | 193 | 1.0 | 8.0 | 0.00 | 0.00 | 0.00 | 100 | 1020.7 |
| 20260902163052 | 66 | 187 | 1.0 | 7.0 | 0.00 | 0.00 | 0.00 | 100 | 1020.7 |
| 20260902161545 | 66 | 124 | 0.0 | 6.0 | 0.00 | 0.00 | 0.00 | 100 | 1020.5 |
| 20260902160048 | 66 | 153 | 0.0 | 6.0 | 0.00 | 0.00 | 0.00 | 100 | 1020.4 |
| 20260902154536 | 65 | 164 | 0.0 | 7.0 | 0.00 | 0.00 | 0.00 | 100 | 1020.6 |
| 20260902153033 | 65 | 181 | 1.0 | 8.0 | 0.00 | 0.00 | 0.00 | 100 | 1020.7 |
| 20260902151528 | 64 | 144 | 0.0 | 6.0 | 0.00 | 0.00 | 0.00 | 100 | 1020.6 |
| 20260902150024 | 64 | 229 | 0.0 | 5.0 | 0.00 | 0.00 | 0.00 | 100 | 1020.3 |
| 20260902144519 | 64 | 172 | 0.0 | 5.0 | 0.00 | 0.00 | 0.00 | 100 | 1020.7 |
| 20260902143014 | 63 | 180 | 0.0 | 6.0 | 0.00 | 0.00 | 0.00 | 100 | 1020.9 |
| 20260902141512 | 63 | 191 | 1.0 | 8.0 | 0.00 | 0.00 | 0.00 | 100 | 1021.0 |
| 20260902140006 | 63 | 180 | 0.0 | 6.0 | 0.00 | 0.00 | 0.00 | 100 | 1020.5 |
| 20260902134501 | 63 | 130 | 1.0 | 8.0 | 0.00 | 0.00 | 0.00 | 100 | 1020.5 |
| 20260902133106 | 63 | 185 | 1.0 | 4.0 | 0.00 | 0.00 | 0.00 | 100 | 1020.5 |
| 20260902131554 | 62 | 167 | 0.0 | 7.0 | 0.00 | 0.00 | 0.00 | 100 | 1020.6 |
| 20260902130048 | 62 | 195 | 0.0 | 7.0 | 0.00 | 0.00 | 0.00 | 100 | 1020.6 |
| 20260902124544 | 0 | 0.0 | 0.0 | 0.00 | 0.00 | 0.00 | 1020.2 | ||
| 20260902123047 | 0 | 0.0 | 0.0 | 0.00 | 0.00 | 0.00 | 1020.0 | ||
| 20260902121535 | 0 | 0.0 | 0.0 | 0.00 | 0.00 | 0.00 | 1020.1 | ||
| 20260902120041 | 0 | 0.0 | 0.0 | 0.00 | 0.00 | 0.00 | 1020.0 | ||
| 20260902114526 | 0 | 0.0 | 0.0 | 0.00 | 0.00 | 0.00 | 1019.9 | ||
| 20260902113023 | 0 | 0.0 | 0.0 | 0.00 | 0.00 | 0.00 | 1020.0 | ||
| 20260902111535 | 0 | 0.0 | 0.0 | 0.00 | 0.00 | 0.00 | 1020.1 | ||
| 20260902110034 | 0 | 0.0 | 0.0 | 0.00 | 0.00 | 0.00 | 1020.3 | ||
| 20260902104509 | 0 | 0.0 | 0.0 | 0.00 | 0.00 | 0.00 | 1020.3 | ||
| 20260902103004 | 0 | 0.0 | 0.0 | 0.00 | 0.00 | 0.00 | 1020.1 | ||
| 20260902101600 | 0 | 0.0 | 0.0 | 0.00 | 0.00 | 0.00 | 1019.9 | ||
| 20260902100056 | 0 | 0.0 | 0.0 | 0.00 | 0.00 | 0.00 | 1019.8 | ||
| 20260902094553 | 63 | 157 | 0.0 | 0.0 | 0.00 | 0.00 | 0.00 | 100 | 1019.7 |
| 20260902093045 | 63 | 154 | 0.0 | 0.0 | 0.00 | 0.00 | 0.00 | 100 | 1019.7 |
| 20260902091539 | 63 | 154 | 0.0 | 2.0 | 0.00 | 0.00 | 0.00 | 100 | 1019.7 |
| 20260902090035 | 63 | 155 | 0.0 | 1.0 | 0.00 | 0.00 | 0.00 | 100 | 1019.4 |
| 20260902084538 | 63 | 214 | 0.0 | 1.0 | 0.00 | 0.00 | 0.00 | 100 | 1019.4 |
| 20260902083026 | 63 | 261 | 0.0 | 0.0 | 0.00 | 0.00 | 0.00 | 100 | 1019.2 |
| 20260902081522 | 63 | 151 | 0.0 | 0.0 | 0.00 | 0.00 | 0.00 | 100 | 1019.1 |
| 20260902080018 | 63 | 155 | 0.0 | 4.0 | 0.00 | 0.00 | 0.00 | 100 | 1019.2 |
| 20260902074514 | 63 | 69 | 0.0 | 2.0 | 0.00 | 0.00 | 0.00 | 100 | 1019.2 |
| 20260902073009 | 63 | 205 | 0.0 | 2.0 | 0.00 | 0.00 | 0.00 | 100 | 1019.3 |
| 20260902071505 | 63 | 142 | 0.0 | 3.0 | 0.00 | 0.00 | 0.00 | 100 | 1019.2 |
| 20260902070100 | 63 | 196 | 0.0 | 3.0 | 0.00 | 0.00 | 0.00 | 100 | 1019.3 |
| 20260902064556 | 63 | 181 | 0.0 | 2.0 | 0.00 | 0.00 | 0.00 | 100 | 1019.4 |
| 20260902063051 | 63 | 180 | 0.0 | 7.0 | 0.00 | 0.00 | 0.00 | 100 | 1019.3 |
| 20260902060048 | 64 | 178 | 0.0 | 4.0 | 0.00 | 0.00 | 0.00 | 100 | 1019.3 |
| 20260902054545 | 64 | 229 | 0.0 | 2.0 | 0.00 | 0.00 | 0.00 | 100 | 1019.2 |
| 20260902053034 | 64 | 11 | 0.0 | 1.0 | 0.00 | 0.00 | 0.00 | 100 | 1019.1 |
| 20260902051529 | 64 | 10 | 0.0 | 0.0 | 0.00 | 0.00 | 0.00 | 100 | 1018.8 |
| 20260902050026 | 64 | 10 | 0.0 | 0.0 | 0.00 | 0.00 | 0.00 | 100 | 1018.6 |
| 20260902044521 | 64 | 44 | 0.0 | 3.0 | 0.00 | 0.00 | 0.00 | 100 | 1018.5 |
| 20260902043018 | 64 | 253 | 0.0 | 0.0 | 0.00 | 0.00 | 0.00 | 100 | 1018.5 |
| 20260902041512 | 65 | 248 | 0.0 | 0.0 | 0.00 | 0.00 | 0.00 | 100 | 1018.4 |
| 20260902040008 | 65 | 248 | 0.0 | 0.0 | 0.00 | 0.00 | 0.00 | 100 | 1018.3 |
| 20260902034503 | 65 | 248 | 0.0 | 0.0 | 0.00 | 0.00 | 0.00 | 100 | 1018.1 |
| 20260902033108 | 65 | 248 | 0.0 | 0.0 | 0.00 | 0.00 | 0.00 | 100 | 1017.9 |
| 20260902031555 | 65 | 248 | 0.0 | 0.0 | 0.00 | 0.00 | 0.00 | 100 | 1018.0 |
| 20260902030051 | 66 | 248 | 0.0 | 0.0 | 0.00 | 0.00 | 0.00 | 100 | 1017.8 |
| 20260902024546 | 66 | 252 | 0.0 | 0.0 | 0.00 | 0.00 | 0.00 | 100 | 1017.9 |
| 20260902023043 | 66 | 252 | 0.0 | 0.0 | 0.00 | 0.00 | 0.00 | 100 | 1017.8 |
| 20260902021537 | 67 | 252 | 0.0 | 0.0 | 0.00 | 0.00 | 0.00 | 100 | 1017.9 |
| 20260902020033 | 67 | 252 | 0.0 | 0.0 | 0.00 | 0.00 | 0.00 | 100 | 1018.0 |